Time,TemperatureF,DewpointF,PressureIn,WindDirection,WindDirectionDegrees,WindSpeedMPH,WindSpeedGustMPH,Humidity,HourlyPrecipIn,Conditions,Clouds,dailyrainin,SoftwareType,DateUTC
2013-04-27 00:00:00,50.9,42.6,29.84,SSE,158,1.1,1.1,73,0.00,,,0.00,WUHU216HW,2013-04-27 05:00:00,
2013-04-27 00:05:00,50.9,42.6,29.84,SSE,158,1.1,1.1,73,0.00,,,0.00,WUHU216HW,2013-04-27 05:05:00,
2013-04-27 00:30:00,50.2,42.2,29.84,NE,45,0.0,0.0,74,0.00,,,0.00,WUHU216HW,2013-04-27 05:30:00,
2013-04-27 00:35:00,50.2,42.2,29.84,NE,45,0.0,0.0,74,0.00,,,0.00,WUHU216HW,2013-04-27 05:35:00,
2013-04-27 00:40:00,50.2,42.2,29.84,NE,45,0.0,0.0,74,0.00,,,0.00,WUHU216HW,2013-04-27 05:40:00,
2013-04-27 01:00:00,49.5,41.9,29.84,NNE,23,0.0,0.0,75,0.00,,,0.00,WUHU216HW,2013-04-27 06:00:00,
2013-04-27 01:05:00,49.5,41.9,29.84,NNE,23,0.0,0.0,75,0.00,,,0.00,WUHU216HW,2013-04-27 06:05:00,
2013-04-27 01:30:00,49.5,41.9,29.83,NE,45,0.0,0.0,75,0.00,,,0.00,WUHU216HW,2013-04-27 06:30:00,
2013-04-27 01:35:00,49.5,41.9,29.83,NE,45,0.0,0.0,75,0.00,,,0.00,WUHU216HW,2013-04-27 06:35:00,
2013-04-27 02:00:00,49.9,42.6,29.82,SE,135,0.0,0.0,76,0.00,,,0.00,WUHU216HW,2013-04-27 07:00:00,
2013-04-27 02:05:00,49.9,42.6,29.82,SE,135,0.0,0.0,76,0.00,,,0.00,WUHU216HW,2013-04-27 07:05:00,
2013-04-27 02:30:00,50.0,42.8,29.81,East,90,0.0,0.0,76,0.00,,,0.00,WUHU216HW,2013-04-27 07:30:00,
2013-04-27 02:35:00,50.0,42.8,29.81,East,90,0.0,0.0,76,0.00,,,0.00,WUHU216HW,2013-04-27 07:35:00,
2013-04-27 03:00:00,49.7,42.8,29.80,SSE,158,0.0,0.0,77,0.00,,,0.00,WUHU216HW,2013-04-27 08:00:00,
2013-04-27 03:05:00,49.7,42.8,29.80,SSE,158,0.0,0.0,77,0.00,,,0.00,WUHU216HW,2013-04-27 08:05:00,
2013-04-27 03:10:00,49.7,42.8,29.80,SSE,158,0.0,0.0,77,0.00,,,0.00,WUHU216HW,2013-04-27 08:10:00,
2013-04-27 03:30:00,49.3,42.4,29.80,South,180,1.1,1.1,77,0.00,,,0.00,WUHU216HW,2013-04-27 08:30:00,
2013-04-27 03:35:00,49.3,42.4,29.80,South,180,1.1,1.1,77,0.00,,,0.00,WUHU216HW,2013-04-27 08:35:00,
2013-04-27 03:40:00,49.3,42.4,29.80,South,180,1.1,1.1,77,0.00,,,0.00,WUHU216HW,2013-04-27 08:40:00,
2013-04-27 04:00:00,49.0,42.3,29.80,ESE,113,0.0,0.0,78,0.00,,,0.00,WUHU216HW,2013-04-27 09:00:00,
2013-04-27 04:05:00,49.0,42.3,29.80,ESE,113,0.0,0.0,78,0.00,,,0.00,WUHU216HW,2013-04-27 09:05:00,
2013-04-27 04:30:00,48.4,41.8,29.79,ESE,113,0.0,0.0,78,0.00,,,0.00,WUHU216HW,2013-04-27 09:30:00,
2013-04-27 04:35:00,48.4,41.8,29.79,ESE,113,0.0,0.0,78,0.00,,,0.00,WUHU216HW,2013-04-27 09:35:00,
2013-04-27 05:00:00,47.9,41.3,29.78,SSE,158,1.1,1.1,78,0.00,,,0.00,WUHU216HW,2013-04-27 10:00:00,
2013-04-27 05:05:00,47.9,41.3,29.78,SSE,158,1.1,1.1,78,0.00,,,0.00,WUHU216HW,2013-04-27 10:05:00,
2013-04-27 05:30:00,47.5,41.3,29.78,SE,135,0.0,0.0,79,0.00,,,0.00,WUHU216HW,2013-04-27 10:30:00,
2013-04-27 05:35:00,47.5,41.3,29.78,SE,135,0.0,0.0,79,0.00,,,0.00,WUHU216HW,2013-04-27 10:35:00,
2013-04-27 06:00:00,46.8,40.3,29.77,ESE,113,0.0,0.0,78,0.00,,,0.00,WUHU216HW,2013-04-27 11:00:00,
2013-04-27 06:05:00,46.8,40.3,29.77,ESE,113,0.0,0.0,78,0.00,,,0.00,WUHU216HW,2013-04-27 11:05:00,
2013-04-27 06:30:00,46.4,40.7,29.78,ESE,113,0.0,0.0,80,0.00,,,0.00,WUHU216HW,2013-04-27 11:30:00,
2013-04-27 06:35:00,46.4,40.7,29.78,ESE,113,0.0,0.0,80,0.00,,,0.00,WUHU216HW,2013-04-27 11:35:00,
2013-04-27 07:00:00,47.2,41.7,29.77,ESE,113,1.8,1.8,81,0.00,,,0.00,WUHU216HW,2013-04-27 12:00:00,
2013-04-27 07:05:00,47.2,41.7,29.77,ESE,113,1.8,1.8,81,0.00,,,0.00,WUHU216HW,2013-04-27 12:05:00,
2013-04-27 07:30:00,49.3,44.3,29.78,ESE,113,1.1,1.1,83,0.00,,,0.00,WUHU216HW,2013-04-27 12:30:00,
2013-04-27 07:34:00,49.3,44.3,29.78,ESE,113,1.1,1.1,83,0.00,,,0.00,WUHU216HW,2013-04-27 12:34:00,
2013-04-27 08:00:00,52.2,46.5,29.77,East,90,1.6,1.6,81,0.00,,,0.00,WUHU216HW,2013-04-27 13:00:00,
2013-04-27 08:05:00,52.2,46.5,29.77,East,90,1.6,1.6,81,0.00,,,0.00,WUHU216HW,2013-04-27 13:05:00,
2013-04-27 08:30:00,54.4,47.6,29.76,SE,135,1.8,1.8,78,0.00,,,0.00,WUHU216HW,2013-04-27 13:30:00,
2013-04-27 08:35:00,54.4,47.6,29.76,SE,135,1.8,1.8,78,0.00,,,0.00,WUHU216HW,2013-04-27 13:35:00,
2013-04-27 09:00:00,56.5,48.0,29.76,SE,135,1.6,1.6,73,0.00,,,0.00,WUHU216HW,2013-04-27 14:00:00,
2013-04-27 09:05:00,56.5,48.0,29.76,SE,135,1.6,1.6,73,0.00,,,0.00,WUHU216HW,2013-04-27 14:05:00,
2013-04-27 09:30:00,58.3,48.6,29.75,SSE,158,3.4,3.4,70,0.00,,,0.00,WUHU216HW,2013-04-27 14:30:00,
2013-04-27 09:35:00,58.3,48.6,29.75,SSE,158,3.4,3.4,70,0.00,,,0.00,WUHU216HW,2013-04-27 14:35:00,
2013-04-27 10:00:00,60.8,49.1,29.74,ESE,113,3.4,3.4,65,0.00,,,0.00,WUHU216HW,2013-04-27 15:00:00,
2013-04-27 10:05:00,60.8,49.1,29.74,ESE,113,3.4,3.4,65,0.00,,,0.00,WUHU216HW,2013-04-27 15:05:00,
2013-04-27 10:30:00,62.3,48.7,29.74,SSE,158,5.1,5.1,61,0.00,,,0.00,WUHU216HW,2013-04-27 15:30:00,
2013-04-27 10:35:00,62.3,48.7,29.74,SSE,158,5.1,5.1,61,0.00,,,0.00,WUHU216HW,2013-04-27 15:35:00,
2013-04-27 11:00:00,63.4,48.2,29.74,ESE,113,4.5,4.5,58,0.00,,,0.00,WUHU216HW,2013-04-27 16:00:00,
2013-04-27 11:05:00,63.4,48.2,29.74,ESE,113,4.5,4.5,58,0.00,,,0.00,WUHU216HW,2013-04-27 16:05:00,
2013-04-27 11:30:00,63.9,47.8,29.74,East,90,5.4,5.4,56,0.00,,,0.00,WUHU216HW,2013-04-27 16:30:00,
2013-04-27 11:35:00,63.9,47.8,29.74,East,90,5.4,5.4,56,0.00,,,0.00,WUHU216HW,2013-04-27 16:35:00,
2013-04-27 12:00:00,64.3,47.6,29.72,SE,135,2.7,2.7,55,0.00,,,0.00,WUHU216HW,2013-04-27 17:00:00,
2013-04-27 12:05:00,64.3,47.6,29.72,SE,135,2.7,2.7,55,0.00,,,0.00,WUHU216HW,2013-04-27 17:05:00,
2013-04-27 12:30:00,64.3,45.2,29.71,East,90,2.5,2.5,50,0.00,,,0.00,WUHU216HW,2013-04-27 17:30:00,
2013-04-27 12:35:00,64.3,45.2,29.71,East,90,2.5,2.5,50,0.00,,,0.00,WUHU216HW,2013-04-27 17:35:00,
2013-04-27 13:00:00,64.4,45.4,29.70,SSE,158,2.7,2.7,50,0.00,,,0.00,WUHU216HW,2013-04-27 18:00:00,
2013-04-27 13:05:00,64.4,45.4,29.70,SSE,158,2.7,2.7,50,0.00,,,0.00,WUHU216HW,2013-04-27 18:05:00,
2013-04-27 13:30:00,64.3,45.7,29.69,SW,225,3.4,3.4,51,0.00,,,0.00,WUHU216HW,2013-04-27 18:30:00,
2013-04-27 13:35:00,64.3,45.7,29.69,SW,225,3.4,3.4,51,0.00,,,0.00,WUHU216HW,2013-04-27 18:35:00,
2013-04-27 13:40:00,64.3,45.7,29.69,SW,225,3.4,3.4,51,0.00,,,0.00,WUHU216HW,2013-04-27 18:40:00,
2013-04-27 14:00:00,64.4,45.4,29.67,South,180,6.7,6.7,50,0.00,,,0.00,WUHU216HW,2013-04-27 19:00:00,
2013-04-27 14:05:00,64.4,45.4,29.67,South,180,6.7,6.7,50,0.00,,,0.00,WUHU216HW,2013-04-27 19:05:00,
2013-04-27 14:30:00,65.9,46.8,29.65,SE,135,4.7,4.7,50,0.00,,,0.00,WUHU216HW,2013-04-27 19:30:00,
2013-04-27 14:35:00,65.9,46.8,29.65,SE,135,4.7,4.7,50,0.00,,,0.00,WUHU216HW,2013-04-27 19:35:00,
2013-04-27 15:00:00,65.2,46.1,29.64,SSE,158,2.7,2.7,50,0.00,,,0.00,WUHU216HW,2013-04-27 20:00:00,
2013-04-27 15:05:00,65.2,46.1,29.64,SSE,158,2.7,2.7,50,0.00,,,0.00,WUHU216HW,2013-04-27 20:05:00,
2013-04-27 15:30:00,64.1,46.5,29.63,SE,135,5.6,5.6,53,0.00,,,0.00,WUHU216HW,2013-04-27 20:30:00,
2013-04-27 15:35:00,64.1,46.5,29.63,SE,135,5.6,5.6,53,0.00,,,0.00,WUHU216HW,2013-04-27 20:35:00,
2013-04-27 16:00:00,62.8,48.2,29.62,SE,135,3.1,3.1,59,0.00,,,0.00,WUHU216HW,2013-04-27 21:00:00,
2013-04-27 16:05:00,62.8,48.2,29.62,SE,135,3.1,3.1,59,0.00,,,0.00,WUHU216HW,2013-04-27 21:05:00,
2013-04-27 16:30:00,61.6,49.3,29.62,SE,135,3.8,3.8,64,0.00,,,0.00,WUHU216HW,2013-04-27 21:30:00,
2013-04-27 16:35:00,61.6,49.3,29.62,SE,135,3.8,3.8,64,0.00,,,0.00,WUHU216HW,2013-04-27 21:35:00,
2013-04-27 17:00:00,60.1,49.6,29.63,SSE,158,4.0,4.0,68,0.00,,,0.00,WUHU216HW,2013-04-27 22:00:00,
2013-04-27 17:05:00,60.1,49.6,29.63,SSE,158,4.0,4.0,68,0.00,,,0.00,WUHU216HW,2013-04-27 22:05:00,
2013-04-27 17:30:00,59.0,49.3,29.62,SE,135,3.4,3.4,70,0.01,,,0.00,WUHU216HW,2013-04-27 22:30:00,
2013-04-27 17:35:00,59.0,49.3,29.62,SE,135,3.4,3.4,70,0.01,,,0.00,WUHU216HW,2013-04-27 22:35:00,
2013-04-27 18:00:00,58.3,49.3,29.61,SSE,158,1.8,1.8,72,0.04,,,0.01,WUHU216HW,2013-04-27 23:00:00,
2013-04-27 18:05:00,58.3,49.3,29.61,SSE,158,1.8,1.8,72,0.04,,,0.01,WUHU216HW,2013-04-27 23:05:00,
2013-04-27 18:30:00,56.7,49.1,29.60,ESE,113,1.1,1.1,76,0.08,,,0.04,WUHU216HW,2013-04-27 23:30:00,
2013-04-27 18:35:00,56.7,49.1,29.60,ESE,113,1.1,1.1,76,0.08,,,0.04,WUHU216HW,2013-04-27 23:35:00,
2013-04-27 19:00:00,55.6,49.1,29.59,East,90,2.0,2.0,79,0.11,,,0.09,WUHU216HW,2013-04-28 00:00:00,
2013-04-27 19:05:00,55.6,49.1,29.59,East,90,2.0,2.0,79,0.11,,,0.09,WUHU216HW,2013-04-28 00:05:00,
2013-04-27 19:30:00,55.1,48.3,29.58,ESE,113,1.1,1.1,78,0.11,,,0.15,WUHU216HW,2013-04-28 00:30:00,
2013-04-27 19:35:00,55.1,48.3,29.58,ESE,113,1.1,1.1,78,0.11,,,0.15,WUHU216HW,2013-04-28 00:35:00,
2013-04-27 20:00:00,54.4,48.7,29.57,ESE,113,0.0,0.0,81,0.09,,,0.21,WUHU216HW,2013-04-28 01:00:00,
2013-04-27 20:05:00,54.4,48.7,29.57,ESE,113,0.0,0.0,81,0.09,,,0.21,WUHU216HW,2013-04-28 01:05:00,
2013-04-27 20:30:00,54.0,49.0,29.56,East,90,2.2,2.2,83,0.04,,,0.25,WUHU216HW,2013-04-28 01:30:00,
2013-04-27 20:35:00,54.0,49.0,29.56,East,90,2.2,2.2,83,0.04,,,0.25,WUHU216HW,2013-04-28 01:35:00,
2013-04-27 21:00:00,54.0,49.2,29.56,ESE,113,1.1,1.1,84,0.01,,,0.25,WUHU216HW,2013-04-28 02:00:00,
2013-04-27 21:05:00,54.0,49.2,29.56,ESE,113,1.1,1.1,84,0.01,,,0.25,WUHU216HW,2013-04-28 02:05:00,
2013-04-27 21:30:00,54.0,49.2,29.56,ESE,113,0.4,0.4,84,0.00,,,0.25,WUHU216HW,2013-04-28 02:30:00,
2013-04-27 21:35:00,54.0,49.2,29.56,ESE,113,0.4,0.4,84,0.00,,,0.25,WUHU216HW,2013-04-28 02:35:00,
2013-04-27 22:00:00,54.2,49.4,29.56,SSE,158,0.7,0.7,84,0.00,,,0.25,WUHU216HW,2013-04-28 03:00:00,
2013-04-27 22:05:00,54.2,49.4,29.56,SSE,158,0.7,0.7,84,0.00,,,0.25,WUHU216HW,2013-04-28 03:05:00,
2013-04-27 22:30:00,53.8,49.4,29.55,ENE,68,0.4,0.4,85,0.00,,,0.25,WUHU216HW,2013-04-28 03:30:00,
2013-04-27 22:35:00,53.8,49.4,29.55,ENE,68,0.4,0.4,85,0.00,,,0.25,WUHU216HW,2013-04-28 03:35:00,
2013-04-27 23:00:00,53.6,49.5,29.54,East,90,2.2,2.2,86,0.00,,,0.25,WUHU216HW,2013-04-28 04:00:00,
2013-04-27 23:01:00,53.6,49.5,29.54,East,90,2.2,2.2,86,0.00,,,0.25,WUHU216HW,2013-04-28 04:01:00,
2013-04-27 23:02:00,53.6,49.5,29.54,East,90,2.2,2.2,86,0.00,,,0.25,WUHU216HW,2013-04-28 04:02:00,
2013-04-27 23:07:00,53.6,49.5,29.54,East,90,2.2,2.2,86,0.00,,,0.25,WUHU216HW,2013-04-28 04:07:00,
2013-04-27 23:30:00,53.6,49.5,29.53,East,90,1.8,1.8,86,0.00,,,0.25,WUHU216HW,2013-04-28 04:30:00,
2013-04-27 23:35:00,53.6,49.5,29.53,East,90,1.8,1.8,86,0.00,,,0.25,WUHU216HW,2013-04-28 04:35:00,